JLY1424 SBGR-SBPS

Flight info

Callsign JLY1424
Flight time 1h 24m
Altitude 37000
Route VUMEV UZ14 NITLU UZ16 OSUNO
Aircraft B738/M-SDE2E3FGHIRWXY/LB1

Departure

Time 2026-04-21 23:58
Airport São Paulo/Guarulhos–Governor André Franco Montoro International Airport (SBGR)

Arrival

Time 2026-04-22 01:22
Airport Porto Seguro International Airport (SBPS)
Time Latitude Longitude Altitude Speed Heading
2026-04-21 23:24 -23.42786 -46.47957 2460 ft 0 kts 265°
2026-04-21 23:48 -23.42786 -46.47956 2460 ft 1 kts 265°
2026-04-21 23:48 -23.42783 -46.47931 2462 ft 4 kts 255°
2026-04-21 23:48 -23.42774 -46.47905 2462 ft 4 kts 233°
2026-04-21 23:48 -23.42756 -46.47889 2463 ft 3 kts 179°
2026-04-21 23:49 -23.42752 -46.47889 2462 ft 1 kts 173°
2026-04-21 23:51 -23.42763 -46.47887 2463 ft 3 kts 170°
2026-04-21 23:52 -23.42790 -46.47882 2462 ft 5 kts 169°
2026-04-21 23:52 -23.42831 -46.47872 2461 ft 7 kts 162°
2026-04-21 23:52 -23.42880 -46.47845 2461 ft 9 kts 158°
2026-04-21 23:52 -23.42921 -46.47834 2460 ft 10 kts 168°
2026-04-21 23:53 -23.43016 -46.47826 2466 ft 11 kts 201°
2026-04-21 23:53 -23.43045 -46.47872 2460 ft 12 kts 249°
2026-04-21 23:53 -23.43074 -46.47969 2460 ft 15 kts 253°
2026-04-21 23:53 -23.43115 -46.48123 2462 ft 16 kts 253°
2026-04-21 23:54 -23.43135 -46.48197 2465 ft 15 kts 253°
2026-04-21 23:54 -23.43164 -46.48305 2460 ft 15 kts 253°
2026-04-21 23:54 -23.43218 -46.48386 2460 ft 14 kts 187°
2026-04-21 23:54 -23.43293 -46.48369 2461 ft 0 kts 164°
2026-04-21 23:56 -23.43323 -46.48359 2462 ft 9 kts 163°
2026-04-21 23:56 -23.43402 -46.48329 2463 ft 14 kts 137°
2026-04-21 23:57 -23.43407 -46.48256 2462 ft 0 kts 75°
2026-04-21 23:57 -23.43332 -46.47978 2460 ft 79 kts 73°
2026-04-21 23:57 -23.43104 -46.47133 2462 ft 151 kts 74°
2026-04-21 23:58 -23.42759 -46.45878 2771 ft 183 kts 75°
2026-04-21 23:58 -23.42418 -46.44586 3929 ft 173 kts 74°
2026-04-21 23:58 -23.42056 -46.43317 4729 ft 183 kts 73°
2026-04-21 23:58 -23.41637 -46.41886 4982 ft 212 kts 72°
2026-04-21 23:59 -23.41158 -46.40266 5179 ft 237 kts 72°
2026-04-21 23:59 -23.40630 -46.38483 5404 ft 261 kts 72°
2026-04-21 23:59 -23.40048 -46.36546 5981 ft 275 kts 70°
2026-04-21 23:59 -23.39160 -46.34670 6710 ft 283 kts 57°
2026-04-22 00:00 -23.38075 -46.32867 7508 ft 286 kts 57°
2026-04-22 00:00 -23.36988 -46.31047 8350 ft 288 kts 58°
2026-04-22 00:00 -23.35903 -46.29202 9143 ft 291 kts 59°
2026-04-22 00:00 -23.34812 -46.27330 9942 ft 295 kts 59°
2026-04-22 00:01 -23.33705 -46.25426 10584 ft 304 kts 59°
2026-04-22 00:01 -23.32534 -46.23404 10778 ft 328 kts 59°
2026-04-22 00:01 -23.31109 -46.21407 11235 ft 341 kts 43°
2026-04-22 00:01 -23.29110 -46.19991 11939 ft 346 kts 28°
2026-04-22 00:02 -23.26951 -46.18821 12691 ft 348 kts 27°
2026-04-22 00:02 -23.24766 -46.17658 13379 ft 352 kts 27°
2026-04-22 00:02 -23.22560 -46.16476 14048 ft 355 kts 27°
2026-04-22 00:02 -23.20333 -46.15266 14636 ft 359 kts 27°
2026-04-22 00:03 -23.18149 -46.14068 15222 ft 363 kts 27°
2026-04-22 00:03 -23.15888 -46.12817 15829 ft 366 kts 27°
2026-04-22 00:03 -23.13608 -46.11552 16430 ft 370 kts 27°
2026-04-22 00:03 -23.11336 -46.10288 17011 ft 374 kts 27°
2026-04-22 00:04 -23.08983 -46.08978 17611 ft 377 kts 27°
2026-04-22 00:04 -23.06667 -46.07689 18190 ft 381 kts 27°
2026-04-22 00:04 -23.04293 -46.06367 18729 ft 385 kts 26°
2026-04-22 00:04 -23.01902 -46.05037 19223 ft 388 kts 26°
2026-04-22 00:05 -22.99490 -46.03696 19721 ft 391 kts 26°
2026-04-22 00:05 -22.97056 -46.02343 20221 ft 395 kts 26°
2026-04-22 00:05 -22.94604 -46.00980 20712 ft 398 kts 26°
2026-04-22 00:05 -22.92130 -45.99606 21199 ft 401 kts 26°
2026-04-22 00:06 -22.89696 -45.98255 21665 ft 405 kts 26°
2026-04-22 00:06 -22.87239 -45.96735 22110 ft 409 kts 32°
2026-04-22 00:06 -22.84878 -45.95005 22596 ft 412 kts 34°
2026-04-22 00:06 -22.82533 -45.93208 23065 ft 414 kts 34°
2026-04-22 00:07 -22.80176 -45.91384 23500 ft 418 kts 34°
2026-04-22 00:07 -22.77796 -45.89549 23889 ft 422 kts 34°
2026-04-22 00:07 -22.75391 -45.87709 24252 ft 424 kts 33°
2026-04-22 00:07 -22.72965 -45.85867 24613 ft 427 kts 33°
2026-04-22 00:08 -22.70520 -45.84020 24972 ft 430 kts 33°
2026-04-22 00:08 -22.68057 -45.82166 25320 ft 433 kts 33°
2026-04-22 00:08 -22.65573 -45.80299 25663 ft 436 kts 33°
2026-04-22 00:08 -22.63073 -45.78423 26006 ft 439 kts 33°
2026-04-22 00:09 -22.60556 -45.76534 26339 ft 442 kts 33°
2026-04-22 00:09 -22.58025 -45.74636 26678 ft 444 kts 33°
2026-04-22 00:09 -22.55476 -45.72725 27009 ft 447 kts 33°
2026-04-22 00:09 -22.52914 -45.70805 27337 ft 450 kts 33°
2026-04-22 00:10 -22.50335 -45.68872 27665 ft 452 kts 33°
2026-04-22 00:10 -22.47741 -45.66930 27970 ft 455 kts 33°
2026-04-22 00:10 -22.45131 -45.64976 28269 ft 458 kts 33°
2026-04-22 00:10 -22.42502 -45.63009 28561 ft 461 kts 33°
2026-04-22 00:11 -22.39860 -45.61033 28857 ft 463 kts 32°
2026-04-22 00:11 -22.37205 -45.59049 29153 ft 465 kts 32°
2026-04-22 00:11 -22.34534 -45.57052 29431 ft 468 kts 32°
2026-04-22 00:11 -22.31883 -45.55073 29693 ft 471 kts 32°
2026-04-22 00:12 -22.29180 -45.53055 29964 ft 473 kts 32°
2026-04-22 00:12 -22.26468 -45.51032 30219 ft 476 kts 32°
2026-04-22 00:12 -22.23733 -45.48992 30433 ft 478 kts 32°
2026-04-22 00:12 -22.21077 -45.47012 30677 ft 480 kts 33°
2026-04-22 00:13 -22.18323 -45.44959 30908 ft 481 kts 33°
2026-04-22 00:13 -22.15562 -45.42903 31128 ft 484 kts 33°
2026-04-22 00:13 -22.12789 -45.40839 31337 ft 486 kts 33°
2026-04-22 00:13 -22.10004 -45.38766 31541 ft 488 kts 33°
2026-04-22 00:14 -22.07199 -45.36679 31760 ft 490 kts 33°
2026-04-22 00:14 -22.04394 -45.34594 32044 ft 489 kts 33°
2026-04-22 00:14 -22.01647 -45.32437 32365 ft 489 kts 36°
2026-04-22 00:14 -21.98955 -45.30191 32668 ft 489 kts 37°
2026-04-22 00:15 -21.96291 -45.27910 32942 ft 489 kts 37°
2026-04-22 00:15 -21.93631 -45.25616 33228 ft 489 kts 38°
2026-04-22 00:15 -21.91039 -45.23391 33504 ft 489 kts 37°
2026-04-22 00:15 -21.88379 -45.21121 33885 ft 487 kts 37°
2026-04-22 00:16 -21.85727 -45.18872 34235 ft 485 kts 37°
2026-04-22 00:16 -21.83075 -45.16633 34477 ft 485 kts 37°
2026-04-22 00:16 -21.80420 -45.14396 34689 ft 486 kts 37°
2026-04-22 00:16 -21.77751 -45.12151 34872 ft 487 kts 37°
2026-04-22 00:17 -21.75080 -45.09905 35090 ft 488 kts 37°
2026-04-22 00:17 -21.72442 -45.07687 35322 ft 488 kts 37°
2026-04-22 00:17 -21.69769 -45.05440 35531 ft 488 kts 38°
2026-04-22 00:17 -21.67089 -45.03188 35727 ft 489 kts 38°
2026-04-22 00:18 -21.64415 -45.00941 35936 ft 489 kts 38°
2026-04-22 00:18 -21.61730 -44.98687 36150 ft 490 kts 38°
2026-04-22 00:18 -21.59042 -44.96430 36342 ft 490 kts 38°
2026-04-22 00:18 -21.56358 -44.94179 36587 ft 489 kts 38°
2026-04-22 00:19 -21.53673 -44.91927 36792 ft 490 kts 38°
2026-04-22 00:19 -21.50987 -44.89676 36960 ft 491 kts 38°
2026-04-22 00:19 -21.48290 -44.87416 37120 ft 492 kts 38°
2026-04-22 00:20 -21.42856 -44.82867 37132 ft 499 kts 38°
2026-04-22 00:20 -21.37349 -44.78260 37136 ft 506 kts 38°
2026-04-22 00:21 -21.31758 -44.73595 37130 ft 512 kts 38°
2026-04-22 00:21 -21.26107 -44.68889 37124 ft 516 kts 38°
2026-04-22 00:22 -21.20418 -44.64151 37117 ft 517 kts 38°
2026-04-22 00:22 -21.14735 -44.59415 37123 ft 518 kts 38°
2026-04-22 00:23 -21.09047 -44.54675 37121 ft 518 kts 38°
2026-04-22 00:23 -21.03367 -44.49948 37124 ft 517 kts 38°
2026-04-22 00:24 -20.97688 -44.45226 37122 ft 516 kts 38°
2026-04-22 00:24 -20.92013 -44.40524 37133 ft 516 kts 38°
2026-04-22 00:25 -20.86338 -44.35830 37120 ft 515 kts 38°
2026-04-22 00:25 -20.80743 -44.31205 37125 ft 514 kts 38°
2026-04-22 00:26 -20.75092 -44.26536 37120 ft 513 kts 38°
2026-04-22 00:26 -20.69447 -44.21876 37131 ft 512 kts 38°
2026-04-22 00:27 -20.63842 -44.17254 37126 ft 512 kts 38°
2026-04-22 00:27 -20.58235 -44.12560 37127 ft 512 kts 39°
2026-04-22 00:28 -20.52730 -44.07768 37119 ft 511 kts 46°
2026-04-22 00:28 -20.48373 -44.01849 37122 ft 506 kts 63°
2026-04-22 00:29 -20.45033 -43.95251 37129 ft 506 kts 64°
2026-04-22 00:29 -20.41704 -43.88633 37131 ft 506 kts 64°
2026-04-22 00:30 -20.38325 -43.82048 37136 ft 506 kts 63°
2026-04-22 00:30 -20.34917 -43.75473 37139 ft 507 kts 63°
2026-04-22 00:31 -20.31504 -43.68900 37139 ft 507 kts 63°
2026-04-22 00:31 -20.28094 -43.62333 37136 ft 507 kts 63°
2026-04-22 00:32 -20.24679 -43.55762 37137 ft 507 kts 63°
2026-04-22 00:32 -20.21260 -43.49189 37126 ft 508 kts 63°
2026-04-22 00:33 -20.17837 -43.42617 37122 ft 507 kts 63°
2026-04-22 00:33 -20.14414 -43.36051 37119 ft 507 kts 63°
2026-04-22 00:34 -20.11012 -43.29535 37112 ft 507 kts 63°
2026-04-22 00:34 -20.07734 -43.22858 37107 ft 505 kts 65°
2026-04-22 00:35 -20.04605 -43.16221 37097 ft 505 kts 65°
2026-04-22 00:35 -20.01424 -43.09564 37102 ft 505 kts 65°
2026-04-22 00:36 -19.98223 -43.02925 37113 ft 504 kts 65°
2026-04-22 00:36 -19.94750 -42.96443 37087 ft 507 kts 54°
2026-04-22 00:37 -19.90154 -42.90751 37097 ft 508 kts 49°
2026-04-22 00:37 -19.85465 -42.85134 37095 ft 508 kts 50°
2026-04-22 00:38 -19.80823 -42.79459 37092 ft 508 kts 50°
2026-04-22 00:38 -19.76206 -42.73766 37090 ft 508 kts 50°
2026-04-22 00:39 -19.71585 -42.68080 37084 ft 509 kts 50°
2026-04-22 00:39 -19.66960 -42.62396 37083 ft 509 kts 51°
2026-04-22 00:40 -19.62338 -42.56713 37080 ft 509 kts 50°
2026-04-22 00:40 -19.57748 -42.51070 37073 ft 508 kts 50°
2026-04-22 00:41 -19.53133 -42.45407 37079 ft 508 kts 50°
2026-04-22 00:41 -19.48580 -42.39819 37083 ft 507 kts 50°
2026-04-22 00:42 -19.44713 -42.35075 37077 ft 507 kts 50°
2026-04-22 00:42 -19.40102 -42.29423 37068 ft 507 kts 50°
2026-04-22 00:43 -19.35524 -42.23817 37075 ft 506 kts 50°
2026-04-22 00:43 -19.30915 -42.18176 37090 ft 506 kts 50°
2026-04-22 00:44 -19.26306 -42.12545 37067 ft 506 kts 50°
2026-04-22 00:44 -19.21682 -42.06916 37069 ft 506 kts 50°
2026-04-22 00:45 -19.17110 -42.01354 37084 ft 506 kts 50°
2026-04-22 00:45 -19.12492 -41.95742 37070 ft 505 kts 50°
2026-04-22 00:46 -19.07877 -41.90142 37075 ft 505 kts 50°
2026-04-22 00:46 -19.03268 -41.84556 37075 ft 504 kts 50°
2026-04-22 00:47 -18.98654 -41.78967 37067 ft 504 kts 50°
2026-04-22 00:47 -18.94049 -41.73392 37074 ft 503 kts 50°
2026-04-22 00:48 -18.89447 -41.67824 37077 ft 503 kts 50°
2026-04-22 00:48 -18.84880 -41.62304 37076 ft 502 kts 50°
2026-04-22 00:49 -18.80289 -41.56760 37081 ft 502 kts 50°
2026-04-22 00:49 -18.75697 -41.51218 37086 ft 501 kts 50°
2026-04-22 00:50 -18.71079 -41.45652 37083 ft 501 kts 50°
2026-04-22 00:50 -18.66496 -41.40132 37090 ft 500 kts 50°
2026-04-22 00:51 -18.61918 -41.34619 37104 ft 500 kts 50°
2026-04-22 00:51 -18.57363 -41.29137 37100 ft 500 kts 50°
2026-04-22 00:52 -18.52783 -41.23631 37097 ft 499 kts 50°
2026-04-22 00:52 -18.48203 -41.18129 37103 ft 499 kts 50°
2026-04-22 00:53 -18.43623 -41.12631 37102 ft 499 kts 50°
2026-04-22 00:53 -18.39042 -41.07138 37111 ft 498 kts 50°
2026-04-22 00:54 -18.34468 -41.01658 37096 ft 498 kts 50°
2026-04-22 00:54 -18.29925 -40.96219 37084 ft 484 kts 50°
2026-04-22 00:54 -18.27733 -40.93596 36907 ft 473 kts 50°
2026-04-22 00:55 -18.25579 -40.91021 36587 ft 465 kts 50°
2026-04-22 00:55 -18.23450 -40.88478 36202 ft 461 kts 50°
2026-04-22 00:55 -18.19287 -40.83513 35435 ft 455 kts 50°
2026-04-22 00:56 -18.17197 -40.81022 35035 ft 453 kts 50°
2026-04-22 00:56 -18.15120 -40.78545 34628 ft 451 kts 50°
2026-04-22 00:56 -18.13051 -40.76080 34236 ft 449 kts 50°
2026-04-22 00:56 -18.10989 -40.73623 33790 ft 447 kts 50°
2026-04-22 00:57 -18.08939 -40.71181 33382 ft 444 kts 50°
2026-04-22 00:57 -18.06900 -40.68753 32990 ft 441 kts 50°
2026-04-22 00:57 -18.04872 -40.66340 32588 ft 439 kts 50°
2026-04-22 00:57 -18.02860 -40.63946 32203 ft 436 kts 50°
2026-04-22 00:58 -18.00899 -40.61614 31830 ft 433 kts 50°
2026-04-22 00:58 -17.98910 -40.59249 31449 ft 431 kts 49°
2026-04-22 00:58 -17.96930 -40.56896 31074 ft 428 kts 49°
2026-04-22 00:58 -17.94964 -40.54561 30682 ft 426 kts 50°
2026-04-22 00:59 -17.93004 -40.52232 30311 ft 424 kts 49°
2026-04-22 00:59 -17.91056 -40.49920 29877 ft 422 kts 49°
2026-04-22 00:59 -17.89115 -40.47617 29468 ft 419 kts 49°
2026-04-22 00:59 -17.87191 -40.45334 29056 ft 416 kts 50°
2026-04-22 01:00 -17.85281 -40.43068 28657 ft 412 kts 50°
2026-04-22 01:00 -17.83391 -40.40827 28269 ft 409 kts 50°
2026-04-22 01:00 -17.81516 -40.38604 27885 ft 405 kts 50°
2026-04-22 01:00 -17.79650 -40.36394 27502 ft 402 kts 50°
2026-04-22 01:01 -17.77802 -40.34206 27122 ft 399 kts 50°
2026-04-22 01:01 -17.75963 -40.32034 26742 ft 397 kts 50°
2026-04-22 01:01 -17.74138 -40.29881 26359 ft 394 kts 50°
2026-04-22 01:01 -17.72322 -40.27743 25992 ft 391 kts 50°
2026-04-22 01:02 -17.70521 -40.25621 25620 ft 389 kts 50°
2026-04-22 01:02 -17.68726 -40.23506 25235 ft 387 kts 50°
2026-04-22 01:02 -17.66945 -40.21407 24873 ft 384 kts 50°
2026-04-22 01:02 -17.65170 -40.19316 24486 ft 382 kts 50°
2026-04-22 01:03 -17.63406 -40.17238 24113 ft 381 kts 50°
2026-04-22 01:03 -17.61600 -40.15167 23673 ft 396 kts 45°
2026-04-22 01:03 -17.59402 -40.13375 23111 ft 424 kts 36°
2026-04-22 01:03 -17.56944 -40.11620 22607 ft 428 kts 36°
2026-04-22 01:04 -17.54435 -40.09838 22204 ft 444 kts 36°
2026-04-22 01:04 -17.51889 -40.08023 21766 ft 452 kts 36°
2026-04-22 01:04 -17.49299 -40.06168 21313 ft 449 kts 36°
2026-04-22 01:04 -17.46745 -40.04332 20878 ft 443 kts 36°
2026-04-22 01:05 -17.44218 -40.02510 20437 ft 438 kts 36°
2026-04-22 01:05 -17.41692 -40.00684 20025 ft 434 kts 36°
2026-04-22 01:05 -17.39249 -39.98917 19616 ft 431 kts 36°
2026-04-22 01:05 -17.36793 -39.97139 19209 ft 428 kts 36°
2026-04-22 01:06 -17.34352 -39.95373 18797 ft 425 kts 36°
2026-04-22 01:06 -17.31926 -39.93618 18375 ft 423 kts 36°
2026-04-22 01:06 -17.29509 -39.91871 17895 ft 421 kts 36°
2026-04-22 01:06 -17.27108 -39.90135 17454 ft 418 kts 36°
2026-04-22 01:07 -17.24720 -39.88411 17029 ft 416 kts 36°
2026-04-22 01:07 -17.22350 -39.86699 16614 ft 413 kts 35°
2026-04-22 01:07 -17.19990 -39.84996 16201 ft 409 kts 35°
2026-04-22 01:07 -17.17672 -39.83323 15792 ft 401 kts 35°
2026-04-22 01:08 -17.15401 -39.81686 15394 ft 393 kts 35°
2026-04-22 01:08 -17.13171 -39.80078 15007 ft 385 kts 35°
2026-04-22 01:08 -17.10985 -39.78502 14627 ft 379 kts 35°
2026-04-22 01:08 -17.08825 -39.76945 14267 ft 376 kts 34°
2026-04-22 01:09 -17.06671 -39.75393 13870 ft 375 kts 34°
2026-04-22 01:09 -17.04526 -39.73848 13439 ft 374 kts 34°
2026-04-22 01:09 -17.02391 -39.72311 13042 ft 370 kts 34°
2026-04-22 01:09 -17.00314 -39.70816 12644 ft 354 kts 34°
2026-04-22 01:10 -16.98328 -39.69387 12282 ft 340 kts 34°
2026-04-22 01:10 -16.96419 -39.68013 11943 ft 327 kts 34°
2026-04-22 01:10 -16.94580 -39.66690 11618 ft 315 kts 34°
2026-04-22 01:10 -16.92801 -39.65411 11299 ft 305 kts 34°
2026-04-22 01:11 -16.91123 -39.64205 11009 ft 298 kts 34°
2026-04-22 01:11 -16.89425 -39.62985 10720 ft 295 kts 34°
2026-04-22 01:11 -16.87732 -39.61767 10441 ft 298 kts 35°
2026-04-22 01:11 -16.86015 -39.60533 10233 ft 300 kts 35°
2026-04-22 01:12 -16.84289 -39.59294 10001 ft 303 kts 35°
2026-04-22 01:12 -16.82524 -39.58026 9683 ft 319 kts 35°
2026-04-22 01:12 -16.80605 -39.56647 9353 ft 347 kts 35°
2026-04-22 01:12 -16.78605 -39.55211 8971 ft 349 kts 35°
2026-04-22 01:13 -16.76607 -39.53778 8598 ft 348 kts 35°
2026-04-22 01:13 -16.74616 -39.52350 8234 ft 347 kts 35°
2026-04-22 01:13 -16.72671 -39.50955 7891 ft 345 kts 35°
2026-04-22 01:13 -16.70675 -39.49524 7010 ft 350 kts 36°
2026-04-22 01:14 -16.68667 -39.48084 6048 ft 350 kts 36°
2026-04-22 01:14 -16.66716 -39.46686 5108 ft 349 kts 36°
2026-04-22 01:14 -16.64730 -39.45264 4480 ft 338 kts 36°
2026-04-22 01:14 -16.62842 -39.43913 4310 ft 328 kts 37°
2026-04-22 01:15 -16.60953 -39.42559 4196 ft 325 kts 37°
2026-04-22 01:15 -16.59122 -39.41247 4059 ft 313 kts 37°
2026-04-22 01:15 -16.57370 -39.39994 4004 ft 298 kts 37°
2026-04-22 01:15 -16.55720 -39.38815 3990 ft 284 kts 37°
2026-04-22 01:16 -16.54136 -39.37682 3984 ft 270 kts 37°
2026-04-22 01:16 -16.52625 -39.36602 3984 ft 259 kts 38°
2026-04-22 01:16 -16.51330 -39.35356 3977 ft 250 kts 62°
2026-04-22 01:16 -16.50690 -39.33687 3789 ft 247 kts 77°
2026-04-22 01:17 -16.50258 -39.32017 3592 ft 244 kts 77°
2026-04-22 01:17 -16.49817 -39.30319 3378 ft 241 kts 77°
2026-04-22 01:17 -16.49384 -39.28682 3178 ft 238 kts 77°
2026-04-22 01:17 -16.48947 -39.27043 3042 ft 230 kts 77°
2026-04-22 01:18 -16.48526 -39.25474 2810 ft 221 kts 77°
2026-04-22 01:18 -16.48133 -39.24008 2623 ft 207 kts 77°
2026-04-22 01:18 -16.47768 -39.22651 2451 ft 193 kts 78°
2026-04-22 01:18 -16.47417 -39.21346 2299 ft 183 kts 78°
2026-04-22 01:19 -16.47079 -39.20091 2142 ft 176 kts 78°
2026-04-22 01:19 -16.46755 -39.18885 2004 ft 168 kts 78°
2026-04-22 01:19 -16.46462 -39.17804 1921 ft 149 kts 79°
2026-04-22 01:19 -16.46191 -39.16796 1865 ft 145 kts 79°
2026-04-22 01:20 -16.45916 -39.15766 1592 ft 149 kts 78°
2026-04-22 01:20 -16.45642 -39.14751 1363 ft 142 kts 78°
2026-04-22 01:20 -16.45378 -39.13768 1167 ft 141 kts 78°
2026-04-22 01:20 -16.45111 -39.12774 987 ft 144 kts 77°
2026-04-22 01:21 -16.44842 -39.11773 802 ft 141 kts 77°
2026-04-22 01:21 -16.44569 -39.10806 599 ft 137 kts 76°
2026-04-22 01:21 -16.44321 -39.09846 386 ft 140 kts 77°
2026-04-22 01:21 -16.44057 -39.08870 195 ft 136 kts 77°
2026-04-22 01:22 -16.43835 -39.08025 158 ft 82 kts 74°
2026-04-22 01:22 -16.43794 -39.07863 160 ft 3 kts 16°
2026-04-22 01:22 -16.43795 -39.07894 159 ft 9 kts 249°
2026-04-22 01:22 -16.43825 -39.07995 158 ft 22 kts 253°
2026-04-22 01:23 -16.43892 -39.08136 159 ft 16 kts 194°
2026-04-22 01:23 -16.43947 -39.08127 159 ft 0 kts 164°
2026-04-22 01:24 -16.43948 -39.08126 159 ft 1 kts 164°
2026-04-22 01:24 -16.43970 -39.08120 159 ft 6 kts 164°
2026-04-22 01:25 -16.44009 -39.08091 159 ft 6 kts 91°
2026-04-22 01:25 -16.44004 -39.08047 159 ft 5 kts 111°
2026-04-22 01:25 -16.44037 -39.08029 159 ft 6 kts 163°
2026-04-22 01:25 -16.44043 -39.08027 159 ft 0 kts 163°